QPF
0.01 0.01 0.00 0.00 0.00 0.01 0.00 0.00 0.00 0.00 0.00 0.00 0.00 0.00 0.00 0.00 0.00 0.00 0.01 0.00 0.00 0.01 0.00 0.00 0.01 0.01 0.01 0.00 0.00 0.00 0.01 0.01 0.01 0.01 0.01 0.01 0.01 0.01 0.01 0.01 0.01 0.01 0.02
0.01 0.01 0.01 0.01 0.01 0.00 0.00 0.00 0.00 0.00 0.00 0.00 0.00 0.00 0.00 0.00 0.00 0.00 0.00 0.00 0.00 0.00 0.00 0.00 0.00 0.00 0.01 0.00 0.00 0.00 0.00 0.01 0.01 0.00 0.00 0.01 0.01 0.01 0.01 0.01 0.00 0.00 0.01
0.01 0.01 0.01 0.01 0.01 0.01 0.00 0.00 0.00 0.00 0.00 0.00 0.00 0.00 0.00 0.00 0.00 0.00 0.00 0.00 0.00 0.00 0.00 0.00 0.00 0.00 0.01 0.01 0.01 0.01 0.01 0.00 0.01 0.01 0.00 0.01 0.01 0.01 0.01 0.01 0.01 0.01 0.00
0.01 0.01 0.01 0.01 0.01 0.01 0.00 0.00 0.00 0.00 0.00 0.00 0.00 0.00 0.00 0.00 0.01 0.00 0.00 0.00 0.00 0.00 0.00 0.00 0.00 0.01 0.01 0.01 0.01 0.01 0.01 0.01 0.01 0.01 0.01 0.01 0.01 0.01 0.02 0.01 0.01 0.02 0.01
0.01 0.01 0.01 0.01 0.01 0.00 0.00 0.00 0.00 0.00 0.00 0.00 0.00 0.00 0.01 0.01 0.01 0.00 0.00 0.00 0.01 0.00 0.00 0.00 0.01 0.00 0.00 0.00 0.01 0.01 0.01 0.01 0.01 0.01 0.01 0.01 0.01 0.02 0.02 0.02 0.02 0.02 0.01
0.01 0.01 0.01 0.01 0.00 0.00 0.00 0.00 0.00 0.00 0.00 0.00 0.01 0.01 0.01 0.00 0.01 0.00 0.00 0.00 0.00 0.00 0.01 0.01 0.01 0.00 0.00 0.00 0.00 0.00 0.00 0.00 0.01 0.01 0.01 0.01 0.02 0.02 0.03 0.03 0.03 0.03 0.02
0.01 0.01 0.00 0.00 0.00 0.00 0.00 0.00 0.00 0.00 0.01 0.01 0.01 0.01 0.01 0.01 0.00 0.00 0.00 0.00 0.00 0.00 0.01 0.01 0.01 0.00 0.00 0.01 0.01 0.00 0.00 0.00 0.00 0.00 0.00 0.01 0.01 0.02 0.04 0.03 0.04 0.04 0.03
0.00 0.00 0.00 0.00 0.00 0.00 0.00 0.00 0.01 0.01 0.02 0.01 0.01 0.01 0.01 0.01 0.00 0.00 0.00 0.00 0.00 0.00 0.00 0.01 0.01 0.01 0.01 0.01 0.01 0.01 0.01 0.01 0.01 0.01 0.01 0.01 0.01 0.02 0.03 0.03 0.03 0.03 0.02
0.00 0.00 0.00 0.00 0.00 0.00 0.00 0.00 0.01 0.01 0.01 0.01 0.01 0.01 0.01 0.01 0.01 0.00 0.00 0.00 0.00 0.00 0.00 0.01 0.01 0.01 0.01 0.00 0.00 0.01 0.01 0.01 0.00 0.00 0.00 0.01 0.00 0.00 0.01 0.01 0.01 0.01 0.01
0.00 0.00 0.01 0.01 0.01 0.01 0.00 0.01 0.01 0.01 0.01 0.01 0.01 0.01 0.01 0.01 0.01 0.00 0.00 0.00 0.00 0.00 0.00 0.00 0.00 0.00 0.00 0.00 0.00 0.01 0.01 0.01 0.01 0.01 0.01 0.01 0.01 0.01 0.01 0.01 0.01 0.01 0.02
0.01 0.02 0.01 0.01 0.01 0.01 0.01 0.01 0.00 0.00 0.00 0.00 0.00 0.01 0.01 0.00 0.00 0.00 0.00 0.00 0.00 0.00 0.00 0.00 0.00 0.00 0.00 0.00 0.00 0.00 0.00 0.00 0.01 0.01 0.01 0.01 0.02 0.03 0.04 0.04 0.04 0.04 0.04
0.02 0.02 0.02 0.02 0.01 0.01 0.01 0.00 0.00 0.00 0.00 0.01 0.02 0.01 0.01 0.00 0.00 0.00 0.00 0.00 0.00 0.00 0.00 0.00 0.00 0.00 0.00 0.00 0.00 0.00 0.00 0.00 0.00 0.00 0.01 0.01 0.02 0.03 0.04 0.05 0.06 0.07 0.06
0.02 0.02 0.02 0.02 0.01 0.01 0.01 0.02 0.02 0.02 0.01 0.01 0.02 0.01 0.00 0.00 0.01 0.00 0.00 0.00 0.00 0.00 0.00 0.00 0.00 0.00 0.00 0.00 0.00 0.00 0.00 0.00 0.00 0.01 0.02 0.02 0.03 0.03 0.04 0.05 0.05 0.06 0.06
0.02 0.01 0.01 0.01 0.01 0.01 0.02 0.02 0.03 0.03 0.02 0.02 0.01 0.01 0.00 0.00 0.00 0.00 0.00 0.00 0.00 0.00 0.00 0.00 0.00 0.00 0.00 0.00 0.00 0.01 0.01 0.01 0.02 0.02 0.02 0.03 0.03 0.04 0.04 0.05 0.05 0.06 0.06
0.02 0.02 0.02 0.02 0.02 0.02 0.02 0.01 0.02 0.02 0.02 0.02 0.01 0.01 0.00 0.00 0.01 0.01 0.00 0.00 0.01 0.01 0.01 0.01 0.00 0.01 0.01 0.01 0.02 0.02 0.03 0.04 0.03 0.04 0.04 0.03 0.04 0.04 0.04 0.05 0.06 0.07 0.06
0.03 0.02 0.02 0.02 0.02 0.02 0.01 0.02 0.02 0.02 0.02 0.01 0.01 0.00 0.00 0.00 0.00 0.00 0.00 0.00 0.00 0.00 0.00 0.00 0.00 0.01 0.01 0.01 0.02 0.02 0.03 0.04 0.05 0.05 0.05 0.05 0.05 0.06 0.06 0.07 0.07 0.07 0.06
0.04 0.03 0.02 0.02 0.02 0.02 0.01 0.01 0.02 0.01 0.02 0.01 0.00 0.00 0.00 0.00 0.00 0.00 0.00 0.00 0.00 0.00 0.00 0.00 0.00 0.01 0.01 0.02 0.02 0.02 0.02 0.03 0.04 0.05 0.06 0.06 0.07 0.07 0.07 0.07 0.07 0.07 0.07
0.03 0.02 0.02 0.02 0.02 0.02 0.01 0.01 0.01 0.01 0.01 0.01 0.01 0.00 0.00 0.00 0.00 0.00 0.01 0.00 0.00 0.00 0.00 0.01 0.01 0.02 0.02 0.03 0.03 0.03 0.03 0.03 0.04 0.05 0.06 0.08 0.09 0.08 0.09 0.08 0.08 0.09 0.08
0.03 0.03 0.03 0.03 0.03 0.02 0.02 0.02 0.02 0.02 0.02 0.02 0.01 0.01 0.01 0.01 0.01 0.01 0.00 0.00 0.00 0.01 0.01 0.02 0.03 0.02 0.02 0.03 0.04 0.04 0.04 0.04 0.04 0.06 0.07 0.08 0.09 0.10 0.09 0.09 0.09 0.10 0.08
0.04 0.04 0.04 0.03 0.03 0.03 0.03 0.02 0.03 0.02 0.02 0.02 0.01 0.01 0.01 0.01 0.00 0.00 0.00 0.00 0.01 0.01 0.02 0.02 0.02 0.02 0.02 0.03 0.04 0.04 0.04 0.04 0.05 0.06 0.07 0.08 0.09 0.09 0.09 0.10 0.10 0.10 0.10
0.04 0.04 0.04 0.02 0.02 0.02 0.02 0.03 0.03 0.02 0.02 0.02 0.01 0.01 0.01 0.00 0.00 0.00 0.00 0.01 0.02 0.02 0.02 0.02 0.02 0.02 0.02 0.03 0.04 0.04 0.05 0.05 0.07 0.07 0.08 0.09 0.10 0.10 0.10 0.10 0.09 0.09 0.09
0.03 0.03 0.02 0.02 0.02 0.02 0.02 0.02 0.02 0.02 0.01 0.01 0.00 0.01 0.01 0.01 0.00 0.00 0.01 0.02 0.02 0.02 0.02 0.01 0.02 0.02 0.03 0.04 0.05 0.06 0.06 0.06 0.08 0.09 0.09 0.09 0.09 0.10 0.10 0.10 0.10 0.10 0.09
0.02 0.02 0.02 0.02 0.02 0.01 0.01 0.01 0.01 0.01 0.00 0.00 0.00 0.00 0.00 0.00 0.01 0.01 0.02 0.02 0.01 0.01 0.01 0.01 0.02 0.03 0.04 0.05 0.05 0.06 0.06 0.06 0.07 0.09 0.10 0.10 0.09 0.09 0.09 0.09 0.08 0.08 0.07
0.02 0.02 0.02 0.01 0.01 0.01 0.01 0.00 0.00 0.00 0.00 0.00 0.01 0.01 0.01 0.01 0.01 0.02 0.02 0.02 0.02 0.02 0.02 0.02 0.03 0.03 0.03 0.04 0.04 0.05 0.05 0.05 0.05 0.07 0.08 0.09 0.08 0.08 0.07 0.07 0.06 0.06 0.07
0.04 0.02 0.02 0.01 0.01 0.01 0.01 0.01 0.01 0.01 0.00 0.00 0.01 0.01 0.01 0.01 0.02 0.02 0.02 0.02 0.02 0.02 0.02 0.02 0.03 0.03 0.03 0.03 0.03 0.04 0.05 0.04 0.04 0.04 0.05 0.06 0.07 0.07 0.07 0.07 0.07 0.07 0.08
0.02 0.01 0.01 0.01 0.01 0.01 0.01 0.01 0.01 0.01 0.00 0.00 0.01 0.01 0.01 0.01 0.02 0.02 0.02 0.02 0.02 0.02 0.03 0.03 0.04 0.04 0.05 0.04 0.04 0.05 0.05 0.04 0.04 0.04 0.04 0.03 0.04 0.05 0.06 0.06 0.05 0.06 0.06
MSLP
1014.28 1014.98 1015.62 1016.16 1016.58 1016.86 1017.03 1017.12 1017.17 1017.22 1017.30 1017.42 1017.59 1017.78 1017.98 1018.17 1018.34 1018.48 1018.59 1018.69 1018.79 1018.90 1019.03 1019.17 1019.32 1019.45 1019.56 1019.62 1019.64 1019.61 1019.53 1019.42 1019.27 1019.11 1018.92 1018.72 1018.50 1018.26 1018.00 1017.73 1017.47 1017.23 1017.03
1014.00 1014.70 1015.35 1015.91 1016.36 1016.69 1016.91 1017.04 1017.13 1017.20 1017.28 1017.39 1017.53 1017.69 1017.87 1018.03 1018.19 1018.33 1018.45 1018.57 1018.69 1018.81 1018.94 1019.08 1019.22 1019.34 1019.44 1019.51 1019.54 1019.54 1019.50 1019.44 1019.34 1019.22 1019.06 1018.87 1018.63 1018.36 1018.06 1017.73 1017.40 1017.08 1016.80
1013.62 1014.30 1014.95 1015.52 1016.00 1016.37 1016.64 1016.84 1016.99 1017.11 1017.23 1017.35 1017.50 1017.65 1017.81 1017.96 1018.11 1018.24 1018.36 1018.48 1018.59 1018.71 1018.83 1018.95 1019.06 1019.17 1019.26 1019.32 1019.37 1019.39 1019.39 1019.36 1019.31 1019.23 1019.11 1018.94 1018.72 1018.45 1018.12 1017.76 1017.39 1017.02 1016.68
1013.15 1013.81 1014.44 1015.02 1015.52 1015.93 1016.26 1016.53 1016.76 1016.95 1017.13 1017.30 1017.48 1017.64 1017.80 1017.95 1018.08 1018.20 1018.30 1018.40 1018.50 1018.59 1018.69 1018.78 1018.87 1018.95 1019.02 1019.07 1019.12 1019.16 1019.18 1019.19 1019.18 1019.14 1019.06 1018.93 1018.74 1018.48 1018.17 1017.81 1017.42 1017.02 1016.65
1012.61 1013.26 1013.88 1014.46 1014.97 1015.42 1015.82 1016.16 1016.47 1016.74 1016.99 1017.22 1017.43 1017.62 1017.79 1017.93 1018.05 1018.15 1018.23 1018.30 1018.37 1018.44 1018.50 1018.57 1018.63 1018.68 1018.73 1018.78 1018.82 1018.86 1018.90 1018.94 1018.96 1018.95 1018.91 1018.81 1018.66 1018.44 1018.15 1017.82 1017.44 1017.05 1016.67
1012.05 1012.70 1013.32 1013.90 1014.43 1014.91 1015.35 1015.76 1016.13 1016.48 1016.80 1017.08 1017.33 1017.55 1017.72 1017.86 1017.96 1018.04 1018.09 1018.14 1018.18 1018.21 1018.25 1018.29 1018.33 1018.36 1018.40 1018.44 1018.48 1018.52 1018.57 1018.62 1018.65 1018.67 1018.65 1018.58 1018.46 1018.28 1018.03 1017.74 1017.40 1017.04 1016.67
1011.51 1012.19 1012.81 1013.39 1013.93 1014.43 1014.91 1015.35 1015.77 1016.17 1016.53 1016.85 1017.13 1017.36 1017.53 1017.66 1017.74 1017.80 1017.83 1017.85 1017.87 1017.89 1017.91 1017.94 1017.97 1018.00 1018.03 1018.06 1018.10 1018.15 1018.19 1018.24 1018.27 1018.29 1018.28 1018.23 1018.12 1017.97 1017.77 1017.51 1017.22 1016.90 1016.56
1011.04 1011.74 1012.38 1012.96 1013.51 1014.02 1014.50 1014.96 1015.39 1015.81 1016.18 1016.52 1016.79 1017.02 1017.18 1017.29 1017.36 1017.40 1017.41 1017.42 1017.43 1017.45 1017.47 1017.50 1017.54 1017.58 1017.62 1017.66 1017.70 1017.74 1017.77 1017.80 1017.82 1017.82 1017.79 1017.73 1017.62 1017.48 1017.30 1017.09 1016.84 1016.56 1016.26
1010.64 1011.37 1012.02 1012.61 1013.15 1013.65 1014.12 1014.57 1014.99 1015.39 1015.75 1016.06 1016.33 1016.53 1016.67 1016.77 1016.82 1016.85 1016.86 1016.87 1016.88 1016.91 1016.95 1017.00 1017.05 1017.11 1017.17 1017.22 1017.26 1017.29 1017.30 1017.30 1017.29 1017.24 1017.17 1017.08 1016.95 1016.80 1016.63 1016.44 1016.22 1015.99 1015.74
1010.29 1011.04 1011.70 1012.29 1012.82 1013.30 1013.74 1014.16 1014.55 1014.91 1015.23 1015.51 1015.74 1015.92 1016.04 1016.12 1016.17 1016.20 1016.21 1016.24 1016.27 1016.32 1016.38 1016.45 1016.53 1016.61 1016.68 1016.73 1016.77 1016.78 1016.77 1016.72 1016.66 1016.56 1016.43 1016.29 1016.12 1015.94 1015.76 1015.57 1015.38 1015.19 1014.99
1009.94 1010.70 1011.37 1011.96 1012.47 1012.93 1013.34 1013.71 1014.06 1014.37 1014.65 1014.88 1015.08 1015.23 1015.33 1015.41 1015.46 1015.50 1015.54 1015.58 1015.64 1015.71 1015.80 1015.89 1015.98 1016.07 1016.14 1016.18 1016.20 1016.19 1016.13 1016.04 1015.92 1015.76 1015.57 1015.37 1015.15 1014.94 1014.73 1014.54 1014.37 1014.21 1014.05
1009.56 1010.32 1010.98 1011.56 1012.06 1012.49 1012.87 1013.21 1013.51 1013.78 1014.01 1014.21 1014.37 1014.50 1014.60 1014.68 1014.75 1014.81 1014.88 1014.95 1015.03 1015.13 1015.23 1015.32 1015.41 1015.49 1015.54 1015.55 1015.54 1015.48 1015.38 1015.24 1015.06 1014.85 1014.61 1014.35 1014.09 1013.84 1013.61 1013.41 1013.24 1013.11 1013.00
1009.12 1009.85 1010.50 1011.06 1011.55 1011.97 1012.33 1012.64 1012.91 1013.14 1013.34 1013.51 1013.66 1013.78 1013.89 1013.99 1014.08 1014.17 1014.27 1014.37 1014.47 1014.57 1014.66 1014.74 1014.80 1014.84 1014.85 1014.82 1014.76 1014.65 1014.50 1014.32 1014.09 1013.84 1013.56 1013.27 1012.98 1012.71 1012.47 1012.26 1012.11 1011.99 1011.91
1008.62 1009.31 1009.94 1010.49 1010.97 1011.37 1011.72 1012.01 1012.26 1012.47 1012.66 1012.81 1012.95 1013.08 1013.20 1013.32 1013.45 1013.57 1013.69 1013.81 1013.92 1014.01 1014.08 1014.12 1014.13 1014.11 1014.05 1013.96 1013.84 1013.68 1013.49 1013.27 1013.02 1012.75 1012.46 1012.17 1011.88 1011.61 1011.37 1011.18 1011.03 1010.93 1010.87
1008.10 1008.75 1009.34 1009.87 1010.34 1010.74 1011.08 1011.36 1011.59 1011.79 1011.95 1012.10 1012.24 1012.38 1012.52 1012.66 1012.81 1012.96 1013.11 1013.23 1013.34 1013.40 1013.43 1013.42 1013.36 1013.27 1013.13 1012.97 1012.79 1012.58 1012.36 1012.13 1011.88 1011.62 1011.35 1011.09 1010.83 1010.58 1010.37 1010.19 1010.06 1009.96 1009.91
1007.66 1008.24 1008.79 1009.29 1009.74 1010.12 1010.45 1010.71 1010.92 1011.10 1011.24 1011.38 1011.51 1011.64 1011.79 1011.95 1012.12 1012.29 1012.45 1012.57 1012.66 1012.70 1012.68 1012.60 1012.47 1012.30 1012.09 1011.86 1011.63 1011.38 1011.15 1010.92 1010.69 1010.47 1010.26 1010.05 1009.84 1009.65 1009.48 1009.33 1009.20 1009.11 1009.04
1007.36 1007.87 1008.36 1008.82 1009.23 1009.58 1009.87 1010.10 1010.28 1010.42 1010.53 1010.63 1010.73 1010.85 1011.00 1011.16 1011.33 1011.51 1011.67 1011.79 1011.86 1011.86 1011.79 1011.66 1011.47 1011.23 1010.96 1010.68 1010.40 1010.14 1009.90 1009.69 1009.51 1009.35 1009.20 1009.06 1008.93 1008.80 1008.67 1008.55 1008.44 1008.33 1008.23
1007.27 1007.70 1008.12 1008.52 1008.87 1009.16 1009.40 1009.56 1009.68 1009.75 1009.81 1009.85 1009.91 1010.00 1010.12 1010.27 1010.43 1010.60 1010.75 1010.87 1010.92 1010.90 1010.81 1010.63 1010.40 1010.11 1009.80 1009.48 1009.18 1008.91 1008.69 1008.51 1008.37 1008.27 1008.19 1008.13 1008.06 1007.99 1007.91 1007.81 1007.70 1007.58 1007.44
1007.42 1007.75 1008.09 1008.40 1008.66 1008.88 1009.02 1009.11 1009.13 1009.12 1009.10 1009.07 1009.07 1009.11 1009.18 1009.30 1009.45 1009.61 1009.76 1009.86 1009.91 1009.88 1009.77 1009.58 1009.32 1009.01 1008.68 1008.35 1008.04 1007.77 1007.57 1007.42 1007.32 1007.27 1007.25 1007.24 1007.23 1007.21 1007.15 1007.07 1006.96 1006.81 1006.63
1007.77 1008.00 1008.23 1008.44 1008.60 1008.70 1008.74 1008.72 1008.65 1008.54 1008.42 1008.31 1008.24 1008.22 1008.25 1008.34 1008.47 1008.61 1008.76 1008.87 1008.92 1008.90 1008.79 1008.60 1008.34 1008.04 1007.70 1007.37 1007.06 1006.81 1006.61 1006.47 1006.40 1006.37 1006.38 1006.40 1006.42 1006.41 1006.37 1006.29 1006.16 1005.98 1005.77
1008.25 1008.37 1008.48 1008.57 1008.62 1008.60 1008.53 1008.40 1008.22 1008.01 1007.81 1007.62 1007.49 1007.41 1007.41 1007.47 1007.58 1007.72 1007.86 1007.98 1008.05 1008.05 1007.96 1007.79 1007.56 1007.26 1006.94 1006.62 1006.32 1006.06 1005.86 1005.72 1005.64 1005.61 1005.61 1005.62 1005.63 1005.61 1005.55 1005.45 1005.30 1005.10 1004.85
1008.75 1008.76 1008.76 1008.73 1008.65 1008.53 1008.35 1008.11 1007.85 1007.57 1007.30 1007.06 1006.88 1006.77 1006.75 1006.79 1006.90 1007.04 1007.19 1007.32 1007.41 1007.43 1007.37 1007.23 1007.02 1006.75 1006.45 1006.14 1005.84 1005.57 1005.36 1005.19 1005.08 1005.00 1004.96 1004.93 1004.89 1004.82 1004.72 1004.59 1004.40 1004.17 1003.90
1009.18 1009.08 1008.97 1008.83 1008.65 1008.43 1008.17 1007.87 1007.54 1007.22 1006.93 1006.67 1006.48 1006.38 1006.35 1006.40 1006.51 1006.66 1006.82 1006.97 1007.07 1007.11 1007.07 1006.96 1006.77 1006.52 1006.23 1005.93 1005.62 1005.34 1005.09 1004.88 1004.71 1004.57 1004.45 1004.34 1004.22 1004.09 1003.93 1003.73 1003.50 1003.25 1002.96
1009.44 1009.26 1009.06 1008.83 1008.58 1008.30 1007.99 1007.66 1007.33 1007.01 1006.73 1006.50 1006.34 1006.26 1006.25 1006.32 1006.44 1006.60 1006.76 1006.91 1007.01 1007.06 1007.03 1006.93 1006.75 1006.52 1006.24 1005.93 1005.61 1005.31 1005.02 1004.75 1004.51 1004.29 1004.08 1003.87 1003.66 1003.44 1003.19 1002.93 1002.65 1002.36 1002.06
1009.54 1009.28 1009.02 1008.75 1008.45 1008.15 1007.83 1007.52 1007.22 1006.95 1006.73 1006.55 1006.45 1006.41 1006.45 1006.54 1006.67 1006.82 1006.97 1007.10 1007.19 1007.21 1007.17 1007.06 1006.88 1006.64 1006.36 1006.05 1005.72 1005.39 1005.06 1004.74 1004.43 1004.12 1003.82 1003.52 1003.20 1002.88 1002.55 1002.22 1001.88 1001.55 1001.23
1009.48 1009.20 1008.90 1008.61 1008.32 1008.03 1007.75 1007.49 1007.26 1007.07 1006.92 1006.83 1006.79 1006.81 1006.88 1006.99 1007.11 1007.24 1007.36 1007.44 1007.48 1007.46 1007.38 1007.23 1007.03 1006.78 1006.49 1006.17 1005.83 1005.48 1005.12 1004.76 1004.39 1004.01 1003.63 1003.24 1002.83 1002.42 1002.00 1001.59 1001.20 1000.82 1000.47
Thickness
5736 5735 5734 5732 5731 5729 5727 5726 5724 5722 5719 5716 5714 5712 5709 5706 5703 5699 5697 5695 5691 5688 5686 5683 5679 5677 5673 5671 5670 5668 5666 5663 5658 5660 5663 5664 5663 5662 5661 5661 5660 5661 5661
5738 5736 5734 5732 5730 5728 5726 5724 5722 5719 5717 5715 5712 5709 5706 5704 5701 5697 5693 5692 5689 5685 5682 5679 5676 5674 5670 5667 5664 5662 5660 5659 5655 5652 5654 5656 5656 5657 5656 5655 5655 5656 5657
5740 5736 5733 5731 5729 5727 5725 5723 5720 5717 5715 5713 5710 5706 5703 5701 5698 5695 5692 5689 5686 5683 5680 5676 5673 5670 5665 5662 5659 5657 5655 5655 5652 5649 5648 5650 5651 5651 5650 5649 5649 5649 5650
5741 5737 5733 5731 5728 5726 5725 5722 5718 5715 5712 5710 5707 5704 5701 5699 5696 5693 5690 5686 5683 5680 5677 5674 5670 5666 5662 5659 5656 5653 5650 5647 5646 5644 5643 5643 5643 5645 5643 5640 5640 5641 5642
5742 5738 5734 5731 5729 5726 5723 5720 5717 5713 5711 5708 5705 5702 5699 5697 5694 5691 5687 5684 5680 5677 5674 5671 5668 5664 5660 5656 5652 5648 5645 5641 5638 5637 5636 5635 5635 5633 5632 5632 5630 5631 5633
5742 5738 5735 5731 5728 5724 5721 5718 5714 5711 5709 5706 5702 5699 5696 5695 5690 5686 5682 5679 5676 5673 5670 5667 5665 5661 5657 5653 5649 5645 5640 5636 5633 5630 5628 5626 5626 5626 5625 5623 5621 5620 5620
5742 5739 5735 5731 5727 5724 5721 5716 5712 5709 5706 5702 5699 5696 5693 5690 5686 5682 5677 5674 5671 5668 5666 5663 5661 5660 5655 5650 5646 5641 5637 5633 5629 5626 5623 5621 5620 5619 5618 5615 5613 5612 5612
5742 5738 5735 5731 5727 5723 5719 5715 5711 5707 5703 5700 5696 5694 5690 5687 5682 5677 5673 5669 5667 5665 5662 5660 5656 5653 5650 5646 5642 5639 5635 5632 5629 5625 5622 5620 5618 5616 5613 5610 5608 5607 5609
5742 5738 5736 5731 5726 5721 5717 5713 5709 5705 5701 5697 5694 5691 5687 5683 5678 5673 5668 5665 5663 5661 5660 5658 5654 5650 5647 5642 5637 5633 5630 5628 5627 5625 5622 5619 5615 5612 5608 5603 5601 5599 5601
5743 5740 5736 5731 5726 5720 5716 5711 5707 5702 5698 5694 5691 5688 5685 5681 5676 5670 5664 5662 5660 5658 5657 5655 5652 5647 5643 5637 5632 5629 5625 5623 5622 5620 5616 5614 5611 5609 5605 5599 5597 5594 5595
5745 5740 5735 5730 5724 5719 5714 5709 5704 5699 5694 5690 5687 5685 5682 5679 5674 5667 5662 5658 5655 5653 5651 5650 5648 5643 5637 5632 5627 5623 5621 5618 5615 5612 5610 5609 5608 5606 5603 5600 5596 5592 5590
5742 5737 5732 5727 5722 5717 5710 5705 5700 5695 5690 5686 5682 5679 5679 5676 5672 5666 5659 5654 5651 5647 5645 5644 5641 5635 5631 5626 5621 5619 5616 5610 5607 5605 5604 5603 5601 5600 5599 5597 5595 5593 5590
5737 5732 5727 5723 5718 5714 5707 5700 5694 5690 5685 5682 5679 5676 5675 5673 5670 5664 5657 5652 5646 5641 5640 5638 5632 5627 5623 5620 5617 5614 5609 5604 5602 5600 5599 5598 5597 5595 5593 5592 5590 5588 5586
5731 5726 5722 5716 5711 5707 5702 5697 5691 5686 5682 5679 5676 5674 5671 5668 5663 5659 5653 5646 5640 5635 5632 5630 5626 5623 5619 5616 5614 5611 5606 5603 5600 5597 5595 5594 5592 5589 5587 5585 5583 5581 5579
5723 5719 5714 5710 5705 5701 5696 5692 5689 5685 5682 5676 5673 5669 5663 5658 5653 5648 5644 5640 5635 5630 5624 5622 5620 5618 5617 5615 5613 5610 5607 5602 5597 5593 5590 5587 5585 5582 5581 5579 5576 5574 5572
5715 5711 5707 5703 5699 5695 5691 5686 5682 5679 5675 5670 5666 5661 5657 5652 5646 5641 5635 5630 5624 5618 5613 5613 5612 5611 5609 5608 5606 5604 5601 5597 5594 5590 5586 5582 5578 5576 5574 5573 5571 5568 5567
5707 5702 5699 5696 5693 5688 5685 5678 5673 5668 5665 5661 5657 5653 5648 5643 5638 5632 5626 5620 5614 5608 5605 5606 5605 5604 5603 5601 5599 5596 5594 5591 5587 5583 5579 5575 5572 5569 5567 5566 5565 5563 5563
5697 5693 5689 5686 5684 5679 5675 5671 5668 5663 5658 5655 5651 5646 5641 5635 5629 5623 5616 5609 5608 5604 5602 5602 5600 5598 5596 5593 5590 5587 5585 5582 5578 5575 5572 5569 5566 5563 5561 5560 5559 5558 5558
5684 5681 5678 5676 5673 5669 5666 5662 5660 5657 5653 5649 5646 5641 5633 5627 5620 5613 5606 5602 5602 5601 5600 5597 5594 5591 5588 5585 5581 5578 5575 5572 5569 5566 5564 5562 5559 5557 5555 5554 5554 5554 5553
5672 5668 5666 5665 5662 5659 5656 5653 5650 5646 5643 5640 5636 5631 5625 5618 5614 5610 5602 5598 5596 5594 5591 5588 5585 5582 5579 5576 5572 5569 5566 5563 5561 5559 5556 5554 5552 5550 5549 5549 5549 5549 5549
5663 5659 5654 5653 5651 5648 5645 5642 5639 5635 5631 5628 5625 5622 5616 5610 5607 5603 5598 5593 5588 5585 5582 5578 5575 5572 5569 5566 5562 5559 5557 5554 5551 5549 5547 5546 5544 5543 5543 5543 5544 5545 5545
5651 5650 5647 5643 5640 5637 5634 5631 5627 5624 5621 5618 5615 5612 5605 5600 5597 5593 5588 5584 5580 5575 5572 5568 5565 5561 5558 5555 5552 5549 5546 5544 5542 5540 5538 5537 5537 5536 5536 5537 5538 5539 5540
5640 5638 5635 5631 5628 5624 5622 5619 5616 5613 5610 5607 5604 5599 5594 5589 5585 5580 5576 5573 5569 5564 5561 5558 5553 5551 5548 5545 5542 5539 5537 5534 5532 5531 5529 5528 5527 5528 5529 5530 5532 5534 5535
5627 5625 5622 5618 5616 5613 5609 5606 5603 5601 5598 5594 5591 5587 5582 5577 5573 5569 5564 5561 5557 5553 5550 5546 5543 5540 5538 5535 5533 5531 5528 5524 5522 5521 5520 5519 5520 5521 5523 5524 5527 5529 5531
5615 5612 5608 5605 5602 5600 5596 5593 5591 5588 5585 5581 5578 5574 5570 5565 5561 5557 5552 5549 5545 5541 5538 5535 5532 5530 5528 5526 5523 5521 5517 5515 5513 5512 5511 5513 5514 5516 5518 5520 5522 5525 5527
5602 5599 5595 5592 5589 5587 5584 5581 5578 5575 5572 5569 5564 5560 5556 5552 5548 5544 5540 5536 5532 5529 5526 5524 5522 5520 5518 5516 5513 5510 5508 5506 5505 5504 5504 5505 5508 5511 5513 5516 5518 5520 5523